Back to catalog

ARCSAT-1

AliveCommunicationsSSO
NORAD 52161·PAYLOAD·🇳🇴 Norway

Launched Apr 1, 2022 from Cape Canaveral Space Force Station

Loading…

Next Passes (next 24 hours)

TLE

FreshSource: Space-Track

Epoch: Sep 14, 2026, 05:00 UTC

1 52161U 22033E   26257.20862022  .00010782  00000-0  15845-3 0  9993
2 52161  97.2738 350.9258 0003698 210.8783 149.2255 15.55655510249539

Track ARCSAT-1 in real time with AllMySat

Download on the App Store